Погода в Саконах

Россия / Нижегородская область     55°22′36″N   43°09′09″E
темп.,
°C
ветер,
м/с
пор.,
м/с
влажн.,
%
обл.,
%
осадки,
мм/ч
давл.,
гПа
погр.,
м
25 июля, вс
вс2500:00+11ссз008080 0.0 101711
03:00+13ююз227394 0.0 101840
06:00+13юз2375100 0.0 1020116
09:00+18з2251100 0.0 1020564
12:00+20зюз2339100 0.0 10211704
15:00+20з3442100 0.0 10201308
18:00+21зсз144075 0.0 10211868
21:00+16зюз11538 0.0 102212
26 июля, пн
пн2600:00+12юз226616 0.0 102321
03:00+12зюз226842 0.0 102336
06:00+15зюз235997 0.0 1023114
09:00+19з3449100 0.0 1023312
12:00+23з3433100 0.0 10232413
15:00+24з463467 0.0 10222527
18:00+22сз254764 0.0 1022478
21:00+16зюз226478 0.0 102220
27 июля, вт
вт2700:00+17зюз375896 0.0 1022145
03:00+13з36752 0.0 102299
06:00+16з37697 0.0 1022216
09:00+22зсз46505 0.0 1021714
12:00+26ссз47375 0.0 10202338
15:00+25сз353986 0.0 10191715
18:00+22з696053 0.1 1019566
21:00+16ссз119165 1.1 101919
28 июля, ср
ср2800:00+15ссз22905 0.1 101913
03:00+14зсз119370 0.2 101911
06:00+16з01867 0.0 101845
09:00+23зюз22575 0.0 1017561
12:00+27з24395 0.0 10151855
15:00+27з3440100 0.0 10141059
18:00+22ю2456100 0.0 101394
21:00+19зюз3865100 0.1 1012149
29 июля, чт
чт2900:00+16сз2490100 0.2 101185
03:00+16зсз2498100 1.4 1011105
06:00+16вюв4798100 8.1 1008287
09:00+16ююв51097100 15.7 1007627
12:00+21ююз378695 0.3 1005786
15:00+21зюз358615 4.6 1004519
18:00+21зсз35859 1.4 1003606
21:00+17зсз25976 1.4 1003111